Hourly Weather Kunming

Today, 4 July, Saturday

Time Temperature Precipitation Wind Pressure Humidity
00:00 +19°C° 0.6 mm 1 mps 590 mmHg 92%
01:00 +18°C° 0 mm 1 mps 590 mmHg 92%
02:00 +18°C° 0.7 mm 1 mps 590 mmHg 93%
03:00 +18°C° 0.7 mm 1 mps 589 mmHg 93%
04:00 +18°C° 0.7 mm 1 mps 589 mmHg 94%
05:00 +18°C° 0.2 mm 1 mps 590 mmHg 93%
06:00 +19°C° 0.2 mm 1 mps 590 mmHg 92%
07:00 +17°C° 0.2 mm 0 mps 590 mmHg 91%
08:00 +20°C° 0.5 mm 1 mps 591 mmHg 87%
09:00 +22°C° 0.5 mm 1 mps 591 mmHg 83%
10:00 +23°C° 0.5 mm 2 mps 592 mmHg 79%
11:00 +23°C° 1.9 mm 2 mps 591 mmHg 78%
12:00 +24°C° 1.9 mm 2 mps 591 mmHg 77%
13:00 +25°C° 1.9 mm 2 mps 591 mmHg 76%
14:00 +25°C° 1.4 mm 2 mps 590 mmHg 75%
15:00 +25°C° 1.4 mm 2 mps 589 mmHg 75%
16:00 +25°C° 1.4 mm 3 mps 589 mmHg 74%
17:00 +23°C° 1.3 mm 2 mps 588 mmHg 78%
18:00 +21°C° 1.3 mm 2 mps 588 mmHg 83%
19:00 +20°C° 1.3 mm 2 mps 588 mmHg 87%
20:00 +20°C° 0.8 mm 2 mps 588 mmHg 87%
21:00 +20°C° 0.8 mm 1 mps 589 mmHg 88%
22:00 +20°C° 0.8 mm 1 mps 589 mmHg 88%
23:00 +19°C° 0.2 mm 1 mps 589 mmHg 89%

Tomorrow, 5 July, Sunday

Time Temperature Precipitation Wind Pressure Humidity
00:00 +19°C° 0.2 mm 1 mps 589 mmHg 90%
01:00 +19°C° 0.2 mm 1 mps 588 mmHg 91%
02:00 +18°C° 0 mm 1 mps 588 mmHg 92%
03:00 +18°C° 0 mm 1 mps 588 mmHg 93%
04:00 +18°C° 0 mm 1 mps 587 mmHg 94%
05:00 +18°C° 0 mm 1 mps 588 mmHg 93%
06:00 +19°C° 0 mm 1 mps 588 mmHg 93%
07:00 +19°C° 0 mm 1 mps 589 mmHg 92%
08:00 +20°C° 0.1 mm 1 mps 589 mmHg 86%
09:00 +21°C° 0.1 mm 2 mps 590 mmHg 79%
10:00 +22°C° 0.1 mm 3 mps 590 mmHg 73%
11:00 +24°C° 0.6 mm 3 mps 590 mmHg 72%
12:00 +25°C° 0.6 mm 3 mps 590 mmHg 70%
13:00 +25°C° 0.6 mm 4 mps 589 mmHg 69%
14:00 +25°C° 0.9 mm 4 mps 589 mmHg 69%
15:00 +25°C° 0.9 mm 4 mps 588 mmHg 70%
16:00 +25°C° 0.9 mm 4 mps 587 mmHg 70%
17:00 +24°C° 0.7 mm 3 mps 587 mmHg 76%
18:00 +21°C° 0.7 mm 2 mps 587 mmHg 81%
19:00 +21°C° 0.7 mm 1 mps 586 mmHg 86%
20:00 +20°C° 0.1 mm 1 mps 587 mmHg 88%
21:00 +20°C° 0.1 mm 1 mps 587 mmHg 89%
22:00 +19°C° 0.1 mm 1 mps 587 mmHg 91%
23:00 +19°C° 0 mm 1 mps 587 mmHg 92%

Day after tomorrow, 6 July, Monday

Time Temperature Precipitation Wind Pressure Humidity
00:00 +18°C° 0 mm 1 mps 587 mmHg 93%
01:00 +18°C° 0 mm 1 mps 587 mmHg 94%
02:00 +18°C° 0 mm 1 mps 586 mmHg 94%
03:00 +18°C° 0 mm 1 mps 586 mmHg 95%
04:00 +18°C° 0 mm 1 mps 586 mmHg 96%
05:00 +18°C° 0 mm 1 mps 587 mmHg 95%
06:00 +19°C° 0 mm 1 mps 587 mmHg 94%
07:00 +19°C° 0 mm 1 mps 588 mmHg 93%
08:00 +19°C° 0.1 mm 2 mps 588 mmHg 88%
09:00 +20°C° 0.1 mm 2 mps 589 mmHg 82%
10:00 +23°C° 0.1 mm 2 mps 589 mmHg 76%
11:00 +24°C° 0.1 mm 3 mps 589 mmHg 71%
12:00 +25°C° 0.1 mm 3 mps 589 mmHg 66%
13:00 +26°C° 0.1 mm 4 mps 589 mmHg 61%
14:00 +26°C° 0.3 mm 4 mps 589 mmHg 62%
15:00 +26°C° 0.3 mm 4 mps 588 mmHg 63%
16:00 +26°C° 0.3 mm 4 mps 587 mmHg 64%
17:00 +25°C° 0.6 mm 3 mps 587 mmHg 72%
18:00 +23°C° 0.6 mm 2 mps 587 mmHg 79%
19:00 +21°C° 0.6 mm 1 mps 587 mmHg 86%
20:00 +21°C° 0.2 mm 1 mps 587 mmHg 88%
21:00 +20°C° 0.2 mm 1 mps 587 mmHg 89%
22:00 +20°C° 0.2 mm 1 mps 588 mmHg 91%
23:00 +19°C° 0.1 mm 1 mps 588 mmHg 92%

7 July, Tuesday

Time Temperature Precipitation Wind Pressure Humidity
00:00 +19°C° 0.1 mm 1 mps 588 mmHg 93%
01:00 +19°C° 0.1 mm 1 mps 587 mmHg 94%
02:00 +19°C° 0 mm 1 mps 587 mmHg 94%
03:00 +18°C° 0 mm 1 mps 587 mmHg 95%
04:00 +18°C° 0 mm 1 mps 587 mmHg 95%
05:00 +19°C° 0 mm 1 mps 588 mmHg 94%
06:00 +19°C° 0 mm 1 mps 588 mmHg 93%
07:00 +20°C° 0 mm 1 mps 589 mmHg 92%
08:00 +21°C° 0.2 mm 1 mps 589 mmHg 87%
09:00 +21°C° 0.2 mm 2 mps 590 mmHg 82%
10:00 +23°C° 0.2 mm 2 mps 590 mmHg 77%
11:00 +24°C° 0.5 mm 3 mps 590 mmHg 73%
12:00 +25°C° 0.5 mm 3 mps 590 mmHg 70%
13:00 +26°C° 0.5 mm 3 mps 590 mmHg 67%
14:00 +26°C° 1.1 mm 3 mps 589 mmHg 69%
15:00 +25°C° 1.1 mm 3 mps 589 mmHg 72%
16:00 +25°C° 1.1 mm 2 mps 588 mmHg 75%
17:00 +24°C° 1.3 mm 2 mps 588 mmHg 79%
18:00 +22°C° 1.3 mm 1 mps 588 mmHg 83%
19:00 +21°C° 1.3 mm 1 mps 588 mmHg 86%
20:00 +21°C° 0.9 mm 1 mps 588 mmHg 87%
21:00 +21°C° 0.9 mm 1 mps 588 mmHg 88%
22:00 +20°C° 0.9 mm 1 mps 589 mmHg 88%
23:00 +20°C° 1.3 mm 1 mps 588 mmHg 90%

8 July, Wednesday

Time Temperature Precipitation Wind Pressure Humidity
00:00 +20°C° 1.3 mm 1 mps 588 mmHg 92%
01:00 +19°C° 1.3 mm 1 mps 588 mmHg 93%
02:00 +19°C° 1.5 mm 1 mps 588 mmHg 94%
03:00 +19°C° 1.5 mm 1 mps 588 mmHg 94%
04:00 +19°C° 1.5 mm 1 mps 587 mmHg 95%
05:00 +19°C° 0.6 mm 1 mps 588 mmHg 95%
06:00 +19°C° 0.6 mm 1 mps 588 mmHg 94%
07:00 +19°C° 0.6 mm 1 mps 588 mmHg 94%
08:00 +19°C° 0.5 mm 2 mps 589 mmHg 92%
09:00 +20°C° 0.5 mm 2 mps 589 mmHg 89%
10:00 +21°C° 0.5 mm 2 mps 589 mmHg 86%
11:00 +21°C° 1.2 mm 3 mps 589 mmHg 84%
12:00 +22°C° 1.2 mm 3 mps 589 mmHg 82%
13:00 +22°C° 1.2 mm 3 mps 589 mmHg 80%
14:00 +22°C° 1 mm 3 mps 588 mmHg 82%
15:00 +21°C° 1 mm 3 mps 588 mmHg 84%
16:00 +21°C° 1 mm 2 mps 587 mmHg 86%
17:00 +20°C° 0.7 mm 2 mps 587 mmHg 88%
18:00 +20°C° 0.7 mm 2 mps 587 mmHg 90%
19:00 +20°C° 0.7 mm 1 mps 587 mmHg 92%
20:00 +19°C° 0.2 mm 1 mps 587 mmHg 93%
21:00 +19°C° 0.2 mm 1 mps 587 mmHg 94%
22:00 +19°C° 0.2 mm 1 mps 588 mmHg 95%
23:00 +19°C° 0.2 mm 1 mps 587 mmHg 95%

9 July, Thursday

Time Temperature Precipitation Wind Pressure Humidity
00:00 +19°C° 0.2 mm 1 mps 587 mmHg 95%
01:00 +18°C° 0.2 mm 1 mps 587 mmHg 95%
02:00 +18°C° 1.2 mm 1 mps 586 mmHg 95%
03:00 +18°C° 1.2 mm 1 mps 586 mmHg 96%
04:00 +18°C° 1.2 mm 1 mps 586 mmHg 96%
05:00 +18°C° 0.6 mm 1 mps 586 mmHg 95%
06:00 +18°C° 0.6 mm 1 mps 586 mmHg 95%
07:00 +18°C° 0.6 mm 1 mps 586 mmHg 94%
08:00 +18°C° 0.2 mm 1 mps 586 mmHg 93%
09:00 +19°C° 0.2 mm 1 mps 587 mmHg 92%
10:00 +19°C° 0.2 mm 1 mps 587 mmHg 91%
11:00 +18°C° 0.2 mm 2 mps 587 mmHg 90%
12:00 +19°C° 0.2 mm 2 mps 587 mmHg 89%
13:00 +19°C° 0.2 mm 2 mps 586 mmHg 88%
14:00 +19°C° 0.3 mm 2 mps 586 mmHg 88%
15:00 +19°C° 0.3 mm 2 mps 586 mmHg 87%
16:00 +19°C° 0.3 mm 2 mps 585 mmHg 87%
17:00 +19°C° 0.1 mm 2 mps 585 mmHg 89%
18:00 +18°C° 0.1 mm 2 mps 585 mmHg 91%
19:00 +19°C° 0.1 mm 1 mps 585 mmHg 93%
20:00 +18°C° 0 mm 1 mps 585 mmHg 94%
21:00 +18°C° 0 mm 1 mps 586 mmHg 95%
22:00 +16°C° 0 mm 1 mps 586 mmHg 96%
23:00 +16°C° 0 mm 1 mps 586 mmHg 96%
Show more